Location: ????????
(55.0808°N, 38.5463°E)
Time: 21:56:42
(UTC+00:00)

Cosmos 1943 Rocket - Visible Passes

Search period start: 12 July 2024 00:00
Search period end: 22 July 2024 00:00
Orbit: 811 x 843 km, 71.0° (Epoch: 11 July)

Date Brightness Start Highest point End Pass type
(mag) Time Alt. Az. Time Alt. Az. Time Alt. Az.
12 Jul 3.9 19:43:44 10° SE 19:46:57 16° E 19:50:15 10° ENE visible
12 Jul 2.2 21:25:13 16° SSW 21:29:46 73° ESE 21:35:23 10° NE visible
12 Jul 3.6 23:08:54 10° WSW 23:14:00 34° NW 23:19:06 10° NNE visible
13 Jul 4.0 19:24:47 10° SE 19:27:39 14° E 19:30:30 10° ENE visible
13 Jul 2.2 21:05:50 16° SSW 21:10:21 66° ESE 21:15:56 10° NE visible
13 Jul 3.5 22:49:17 10° WSW 22:54:29 36° NW 22:59:40 10° NNE visible
14 Jul 4.1 19:06:02 10° ESE 19:08:20 13° E 19:10:37 10° ENE visible
14 Jul 2.3 20:46:23 15° SSW 20:50:56 59° ESE 20:56:29 10° NE visible
14 Jul 3.4 22:29:42 10° WSW 22:34:59 39° NW 22:40:14 10° NNE visible
15 Jul 4.1 18:47:34 10° ESE 18:49:02 11° E 18:50:29 10° ENE visible
15 Jul 2.4 20:26:53 14° S 20:31:32 54° ESE 20:37:00 10° NE visible
15 Jul 3.3 22:10:08 10° WSW 22:15:28 42° NW 22:20:49 10° NNE visible
15 Jul 4.6 23:56:50 10° WNW 00:00:44 19° NNW 00:04:38 10° NNE visible
16 Jul 2.5 20:07:17 13° S 20:12:08 48° ESE 20:17:32 10° NE visible
16 Jul 3.2 21:50:34 10° WSW 21:55:59 45° NW 22:01:23 10° NNE visible
16 Jul 4.6 23:37:09 10° WNW 23:41:10 19° NNW 23:45:10 10° NNE visible
17 Jul 2.6 19:47:36 11° S 19:52:45 44° ESE 19:58:03 10° NE visible
17 Jul 3.1 21:31:01 10° WSW 21:36:30 49° NW 21:41:57 10° NNE visible
17 Jul 4.5 23:17:29 10° WNW 23:21:36 20° NNW 23:25:41 10° NNE visible
18 Jul 2.7 19:28:10 10° S 19:33:22 39° ESE 19:38:33 10° NE visible
18 Jul 2.9 21:11:30 10° SW 21:17:01 53° NW 21:22:31 10° NNE visible
18 Jul 4.5 22:57:49 10° WNW 23:02:02 21° NNW 23:06:14 10° NNE visible
19 Jul 2.9 19:08:55 10° S 19:13:59 35° ESE 19:19:03 10° NE visible
19 Jul 2.8 20:51:58 10° SW 20:57:32 58° NW 21:03:05 10° NNE visible
19 Jul 4.5 22:38:09 10° WNW 22:42:28 22° NNW 22:46:46 10° NNE visible
20 Jul 3.0 18:49:41 10° SSE 18:54:37 32° ESE 18:59:32 10° NE visible
20 Jul 2.7 20:32:28 10° SW 20:38:05 63° NW 20:43:40 10° NNE visible
20 Jul 4.4 22:18:29 10° W 22:22:54 23° NNW 22:27:19 10° NNE visible
21 Jul 4.9 00:05:26 10° NW 00:08:45 16° N 00:12:04 10° NE visible
21 Jul 3.1 18:30:29 10° SSE 18:35:15 29° ESE 18:40:01 10° NE visible
21 Jul 2.5 20:12:58 10° SW 20:18:36 69° NW 20:24:13 10° NNE visible
21 Jul 4.4 21:58:49 10° W 22:03:22 24° NNW 22:07:53 10° NNE visible
21 Jul 4.9 23:45:50 10° NW 23:49:10 16° N 23:52:29 10° NE visible
